Tracking 19903 objects as of 16-Oct-2019
HD Live streaming from Space Station
objects crossing your sky now

LCS 1

Track LCS 1 now!
10-day predictions
LCS 1 is classified as:


NORAD ID: 1361
Int'l Code: 1965-034C
Perigee: 2,788.2 km
Apogee: 2,802.0 km
Inclination: 32.1 °
Period: 145.6 minutes
Semi major axis: 9166 km
RCS: 0.7892 m2 (medium)
Launch date: May 6, 1965
Source: United States (US)
Launch site: AIR FORCE EASTERN TEST RANGE (AFETR)

LCS 1 was an Air Force technology satellite launched from Cape Canaveral aboard a Titan 3A rocket. It was an aluminum sphere used for radar calibration.
aabbcc
Your satellite tracking list
Your tracking list is empty




NASA's NSSDC Master Catalog

Two Line Element Set (TLE):
1  1361U 65034C   19288.86255259 +.00000030 +00000-0 +27908-2 0  9990
2  1361 032.1385 201.6589 0007569 282.0351 077.9298 09.89296516968600
Source of the keplerian elements: AFSPC